Regional Weather Roundup
Issued by NWS

Home | Current Version | Previous Version | Text Only | Print | Product List | Glossary On
Versions: 1 2 3 4 5 6 7 8 9 10 11 12 13 14 15 16 17 18 19 20 21 22 23 24 25 26 27 28 29 30 31 32 33 34 35 36 37 38 39 40 41 42 43 44 45 46 47 48 49 50
000
ASUS43 KMKX 240911
RWRWI

WISCONSIN REGIONAL WEATHER ROUNDUP
NATIONAL WEATHER SERVICE MILWAUKEE/SULLIVAN WI
400 AM CDT THU AUG 24 2017

NOTE: "FAIR" INDICATES FEW OR NO CLOUDS BELOW 12,000 FEET WITH NO
SIGNIFICANT WEATHER AND/OR OBSTRUCTIONS TO VISIBILITY.

WIZ001-002-006>008-014>016-023>028-241000-
NORTHWEST WISCONSIN

CITY           SKY/WX    TMP DP  RH WIND       PRES   REMARKS
SUPERIOR ARPT    N/A     48  48 100 CALM      30.12S FOG
ASHLAND        PTCLDY    45  45 100 CALM      30.14R FOG
HAYWARD        MOCLDY    52  51  97 CALM      30.14R
SIREN            N/A     53  52  97 CALM      30.13R FOG
CUMBERLAND     CLOUDY    54  52  94 CALM      30.13R
RICE LAKE      CLOUDY    54  52  94 SE3       30.14F
CHETEK         CLOUDY    54  52  95 CALM      30.13S
LADYSMITH      CLOUDY    54  51  89 CALM      30.16R
EAU CLAIRE     LGT RAIN  54  52  93 NE3       30.13R
MENOMONIE      DRIZZLE   56  54  94 E3        30.13S
NEW RICHMOND   CLOUDY    55  55  98 E5        30.11S
OSCEOLA        LGT RAIN  56  56 100 CALM      30.14S
$$

WIZ003>005-009-010-017-018-241000-
NORTH CENTRAL WISCONSIN

CITY           SKY/WX    TMP DP  RH WIND       PRES   REMARKS
MANITOWISH WTR MOCLDY    40  40 100 CALM      30.13S FOG
ARBOR VITAE    MOCLDY    46  45  95 CALM      30.13S
WOODRUFF       MOCLDY    46  45  95 CALM      30.13S
RHINELANDER    MOCLDY    49  45  86 CALM      30.14R
EAGLE RIVER    PTCLDY    42  42 100 CALM      30.13S
LAND O LAKES   CLOUDY    39  39 100 CALM      30.15F FOG
PHILLIPS       CLOUDY    49  47  94 CALM      30.13R
TOMAHAWK         N/A     47  45  93 CALM      30.14S
MEDFORD        CLOUDY    50  44  79 CALM      30.13R
MERRILL        CLOUDY    48  46  93 CALM      30.13S
$$

WIZ029-030-035-036-043>047-241000-
CENTRAL WISCONSIN

CITY           SKY/WX    TMP DP  RH WIND       PRES   REMARKS
WAUSAU         CLOUDY    51  42  71 NE3       30.11S
MOSINEE        CLOUDY    50  45  81 E3        30.13S
MARSHFIELD     LGT RAIN  52  45  77 E3        30.12R
STEVENS POINT  CLOUDY    50  44  77 CALM      30.13S
WAUPACA        MOCLDY    54  47  78 N3        30.12R
WAUTOMA        NOT AVBL
WISC RAPIDS    PTCLDY    54  45  71 NE6       30.13R
CAMP DOUGLAS   LGT RAIN  50  50 100 CALM      30.12R
$$

WIZ011>013-019>022-031-037>040-048>050-241000-
NORTHEAST WISCONSIN

CITY           SKY/WX    TMP DP  RH WIND       PRES   REMARKS
ANTIGO         CLOUDY    47  45  93 N3        30.14R
SHAWANO        CLOUDY    53  47  79 CALM      30.12S
OCONTO         CLOUDY    50  45  83 N3        30.11R
STURGEON BAY   NOT AVBL
GREEN BAY      CLOUDY    53  45  74 N8        30.11R
MANITOWOC      CLOUDY    54  48  80 N5        30.09R
APPLETON       CLOUDY    52  39  62 N8        30.09R
CLINTONVILLE   CLOUDY    50  45  81 N3        30.11S
OSHKOSH        NOT AVBL
$$

WIZ032>034-041-042-053>061-241000-
SOUTHWEST WISCONSIN

CITY           SKY/WX    TMP DP  RH WIND       PRES   REMARKS
LA CROSSE      CLOUDY    59  53  80 SE3       30.10F
SPARTA         CLOUDY    49  49  99 NE3       30.12S
VIROQUA        CLOUDY    55  51  88 NE3       30.12R
BOSCOBEL       NOT AVBL
PRAIRIE DU CHI CLOUDY    55  53  94 CALM      30.09S
PLATTEVILLE    MOCLDY    55  55  99 N5        30.09R
$$

WIZ056-057-062-063-064-067-068-241000-
SOUTH CENTRAL WISCONSIN

CITY           SKY/WX    TMP DP  RH WIND       PRES   REMARKS
REEDSBURG      PTCLDY    51  51 100 CALM      30.11R
BARABOO/DELLS  PTCLDY    48  47  93 CALM      30.11R
LONE ROCK      PTCLDY    50  50 100 CALM      30.10R
MINERAL POINT  PTCLDY    55  54  94 N5        30.09S
MADISON        NOT AVBL
MIDDLETON      PTCLDY    53  53 100 CALM      30.09R
WATERTOWN      PTCLDY    54  54  99 CALM      30.06F
MONROE         CLEAR     55  48  76 N6        30.08S
JANESVILLE     CLEAR     54  54 100 CALM      30.06F
$$

WIZ051-052-058>065-066-070>072-241000-
SOUTHEAST WISCONSIN

CITY           SKY/WX    TMP DP  RH WIND       PRES   REMARKS
MILWAUKEE      MOCLDY    61  54  77 NW7       30.05R
WAUKESHA       PTCLDY    54  50  87 W5        30.07S
MILWAUKEE/TIMM MOCLDY    55  46  71 CALM      30.06S
RACINE         CLOUDY    58  54  86 W7        30.06S
KENOSHA        CLOUDY    58  53  84 W6        30.05S
FOND DU LAC    CLOUDY    58  49  72 NE12      30.09R
SHEBOYGAN      MOCLDY    58  55  90 N7        30.07R
WEST BEND      CLOUDY    55  55 100 N3        30.07S
JUNEAU         PTCLDY    55  52  90 N5        30.08S
$$

LSZ147-162-241000-
LAKE SUPERIOR

STATION/POSITION TIME  TEMP    WIND        PRES    WAVE
                       AIR SEA DIR/SP/G            HT/PER
                 (UTC) (F)     (DEG/KT/KT) (MB)    (FT/S)
W MID LAKE BUOY  0850   59 59   20/  2/  2 1019.9R   1/ 3
DEVILS ISLAND    0900   60      40/  5/  6 1020.5R
SAXON HARBOR     0840   48     180/  4/  7 1020.0R
$$

LMZ867-665-643>646-241000-
LAKE MICHIGAN

STATION/POSITION TIME  TEMP    WIND        PRES    WAVE
                       AIR SEA DIR/SP/G            HT/PER
                 (UTC) (F)     (DEG/KT/KT) (MB)    (FT/S)
S GREEN BAY BUOY 0900   59 69  360/ 14/ 17 1019.0
N MID LAKE BUOY  0850   58 65  360/ 12/ 16 1019.0S   2/ 4
NORTHPORT PIER   0840   59     360/ 11/ 14 1019.0R
KEWAUNEE LAKESHO 0848   56     350/  5/  9 1017.9R
SHEBOYGAN LAKESH 0900   62      40/ 16/ 17 1018.0R
PORT WASHINGTON  0830   59     340/  6/ 12 1018.3R
ATWATER BUOY     0839   63 69  310/ 12/ 14 1017.5R
MILWAUKEE LAKESH 0850   61     310/  6/  8   N/A
S MID LAKE BUOY  0850   67 71   90/  6/  8 1017.1F   1/ 5
KENOSHA   LAKESH 0900   61     280/  8/ 10 1017.3
$$

TC  - TEMPERATURE IN CELSIUS
VSB - VISIBILITY IN STATUTE MILES
WCI - WIND CHILL INDEX
HX  - HEAT INDEX




USA.gov is the U.S. government's official web portal to all federal, state and local government web resources and services.